[[{"header":{"parameterUnit":"m.s-1","parameterCategory":1,"la1":30.2991,"la2":30.254,"lo1":-89.0895,"lo2":-89.0444,"dy":0.0017,"dx":0.0017,"nx":28,"ny":28,"refTime":"2025-01-07T09:00:00:Z","depth":0,"parameterNumber":2,"parameterNumberName":"U-component_of_WINDS"},"data":[0,0,0,0,0,0,0,0,0,0,0,0,0,0,0,0,0,0,0,0,0,0,0,0,0,0,0,0,0,0,0,0,0,0,0,0,0,0,0,0,0,0,0,0,0,0,0,0,0,0,0,0,0,0,0,0,0,0,0.4155,0.4154,0,0.4109,0.4109,0.4108,0.4094,0.4094,0.4094,0.4094,0.4044,0.4043,0.4041,0,0,0,0,0,0,0,0,0,0,0,0,0,0.4227,0.4225,0.4155,0.4154,0.4154,0.411,0.4109,0.4108,0.4094,0.4094,0.4094,0.4095,0.4045,0.4043,0.4041,0,0,0,0,0,0,0,0,0,0,0,0,0,0.419,0.4225,0.4155,0.4141,0.414,0.411,0.4109,0.4108,0.4094,0.4094,0.4094,0.4095,0.4046,0.4043,0.4041,0.402,0,0,0.4034,0.4033,0,0,0,0,0,0,0,0,0.4192,0.4187,0.4144,0.4142,0.414,0.4108,0.4116,0.4079,0.4094,0.4111,0.4094,0.4095,0.4065,0.4061,0.4052,0.4018,0.4016,0.4034,0.4032,0.4031,0.4031,0,0,0,0,0,0,0,0.4194,0.4189,0.4137,0.4143,0.4141,0.4137,0.4132,0.4109,0.4087,0.411,0.4108,0.4103,0.4064,0.4054,0.405,0.4015,0.4034,0.4032,0.403,0.4029,0.3963,0.3962,0,0,0,0,0,0,0.42,0.4191,0.4138,0.4136,0.4168,0.4135,0.413,0.4118,0.4087,0.4083,0.4103,0.4103,0.4058,0.4053,0.4049,0.4022,0.4031,0.4029,0.4028,0.3963,0.3963,0.3962,0,0,0,0,0,0,0.4201,0.4195,0.414,0.4163,0.4156,0.4134,0.412,0.4117,0.4107,0.4082,0.4078,0.4097,0.4058,0.4052,0.4028,0.4021,0.4028,0.4026,0.3963,0.3963,0.3962,0.397,0,0,0,0,0,0,0.4203,0.4196,0.4188,0.4163,0.4155,0.4121,0.412,0.4116,0.4103,0.4102,0.4075,0.4071,0.4058,0.4031,0.4026,0.4018,0.4024,0.3964,0.3963,0.3962,0.397,0.397,0.3969,0,0,0,0,0,0.4206,0.4191,0.4188,0.4182,0.4145,0.412,0.4115,0.4101,0.4103,0.4094,0.4079,0.4072,0.4023,0.4029,0.4022,0.4013,0.3964,0.3963,0.3963,0.3971,0.397,0.3969,0,0,0,0,0,0,0.4214,0.4188,0.4184,0.416,0.4143,0.4118,0.4107,0.4101,0.4082,0.4082,0.4064,0.4058,0.4035,0.4022,0.403,0.3992,0.3993,0.3991,0.4001,0.4001,0.4,0.4003,0.4022,0,0,0,0,0,0.4214,0.4198,0.4175,0.4156,0.4148,0.4129,0.4118,0.4109,0.409,0.4082,0.4064,0.4045,0.4025,0.4012,0.3993,0.3969,0.3963,0.396,0.3959,0.3959,0.3957,0.3943,0.3942,0.3959,0.3959,0.3959,0,0,0.4212,0.4195,0.4186,0.4158,0.4143,0.4125,0.4123,0.4104,0.4091,0.4078,0.4055,0.4042,0.4019,0.3995,0.3984,0.3983,0.3951,0.3958,0.3958,0.3956,0.3942,0.3941,0.3939,0.3959,0.3959,0.3959,0,0,0.4199,0.4186,0.4169,0.4155,0.4134,0.4121,0.4118,0.4094,0.4085,0.4062,0.4052,0.4036,0.4002,0.3986,0.3974,0.3958,0.395,0.3952,0.3949,0.3936,0.3934,0.3933,0.3927,0.3925,0.395,0.395,0.395,0,0.4199,0.4173,0.4161,0.4143,0.4131,0.4121,0.4104,0.409,0.4063,0.4054,0.4055,0.4013,0.3997,0.397,0.3966,0.3957,0.3951,0.3954,0.3936,0.3934,0.3933,0.3927,0.3925,0.395,0.395,0.395,0.395,0,0.4174,0.4157,0.4146,0.4121,0.4108,0.4091,0.4075,0.4063,0.4055,0.4043,0.4019,0.4,0.3977,0.397,0.3962,0.3941,0.3942,0.394,0.394,0.3932,0.3926,0.3923,0.3951,0.395,0.395,0.395,0,0,0.4164,0.4134,0.413,0.412,0.4096,0.4082,0.4064,0.4043,0.4032,0.4014,0.3999,0.3971,0.3969,0.3955,0.3946,0.3935,0.3923,0.3933,0.3933,0.3932,0.3899,0.39,0.3898,0.3919,0.3918,0.3918,0.3901,0,0.4148,0.4117,0.4105,0.4079,0.4063,0.4054,0.4039,0.4022,0.4011,0.3994,0.3981,0.3962,0.3961,0.3953,0.3942,0.3927,0.3916,0.3928,0.3903,0.3902,0.3908,0.3895,0.3896,0.3881,0.3898,0.3898,0.3898,0,0.4124,0.4108,0.408,0.406,0.4053,0.4039,0.4019,0.4004,0.3985,0.3978,0.3963,0.3955,0.3935,0.3938,0.3911,0.3919,0.3909,0.39,0.3899,0.3895,0.3898,0.389,0.3875,0.3873,0.3894,0.3894,0.3894,0,0.4119,0.409,0.407,0.4061,0.4036,0.4027,0.4016,0.3998,0.3987,0.3969,0.3961,0.3941,0.393,0.3914,0.39,0.3904,0.3874,0.3876,0.3867,0.3867,0.386,0.386,0.3843,0.3855,0.3855,0.3855,0.3855,0,0.4101,0.4085,0.4067,0.4055,0.4036,0.4024,0.4005,0.3994,0.3978,0.3963,0.3954,0.394,0.3923,0.3906,0.3895,0.3875,0.387,0.3862,0.386,0.3863,0.3864,0.3854,0.3855,0.3854,0.3854,0.3854,0.3854,0,0.4091,0.4079,0.4057,0.4036,0.4031,0.4018,0.4,0.3987,0.3977,0.3958,0.3952,0.3935,0.3915,0.39,0.3874,0.3867,0.3844,0.3842,0.3851,0.3849,0.3841,0.3842,0.3816,0.3812,0.3828,0.3827,0.3827,0,0.408,0.4068,0.4047,0.4037,0.4026,0.401,0.3998,0.3986,0.3974,0.3953,0.3943,0.3923,0.3906,0.3875,0.3859,0.384,0.3836,0.3828,0.3833,0.3836,0.3835,0.3835,0.3834,0.3827,0.3827,0.3827,0.3827,0,0.4062,0.4057,0.4041,0.4024,0.401,0.3996,0.398,0.3973,0.3957,0.3945,0.3925,0.3912,0.3887,0.3867,0.3846,0.3834,0.3828,0.3826,0.3823,0.3825,0.3831,0.3827,0.3849,0.3826,0.3826,0.3826,0.3827,0.3827,0.405,0.4039,0.4023,0.4006,0.3994,0.398,0.3968,0.3956,0.394,0.3919,0.3913,0.3893,0.3875,0.3847,0.3835,0.3819,0.3818,0.3814,0.3812,0.3811,0.3811,0.3835,0.3815,0.3815,0.3815,0.3815,0.3815,0,0.4031,0.4021,0.4005,0.3985,0.3972,0.397,0.3953,0.3942,0.3924,0.3909,0.3894,0.3872,0.3853,0.3837,0.3817,0.3807,0.3804,0.3802,0.3802,0.38,0.3813,0.3817,0.3805,0.3805,0.3805,0.3805,0.3805,0.3805,0.4019,0.4,0.3993,0.3968,0.3958,0.3939,0.393,0.3917,0.3905,0.3881,0.3866,0.3857,0.3841,0.382,0.3803,0.3799,0.3791,0.3791,0.3785,0.3797,0.3799,0.38,0.3804,0.3789,0.3789,0.3773,0.3773,0.3773]},{"header":{"parameterUnit":"m.s-1","parameterCategory":1,"la1":30.2991,"la2":30.254,"lo1":-89.0895,"lo2":-89.0444,"dy":0.0017,"dx":0.0017,"nx":28,"ny":28,"refTime":"2025-01-07T09:00:00:Z","depth":0,"parameterNumber":3,"parameterNumberName":"V-component_of_WINDS"},"data":[0,0,0,0,0,0,0,0,0,0,0,0,0,0,0,0,0,0,0,0,0,0,0,0,0,0,0,0,0,0,0,0,0,0,0,0,0,0,0,0,0,0,0,0,0,0,0,0,0,0,0,0,0,0,0,0,0,0,-7.624,-7.6242,0,-7.6445,-7.6447,-7.6449,-7.6372,-7.6367,-7.6362,-7.6358,-7.6563,-7.6573,-7.6582,0,0,0,0,0,0,0,0,0,0,0,0,0,-7.5777,-7.5786,-7.624,-7.6243,-7.6245,-7.6444,-7.6447,-7.645,-7.6373,-7.6367,-7.6361,-7.6356,-7.656,-7.6571,-7.6583,0,0,0,0,0,0,0,0,0,0,0,0,0,-7.5979,-7.5789,-7.624,-7.6231,-7.6232,-7.6444,-7.6447,-7.6451,-7.6374,-7.6367,-7.636,-7.6353,-7.6556,-7.657,-7.6585,-7.6817,0,0,-7.663,-7.6636,0,0,0,0,0,0,0,0,-7.5968,-7.5997,-7.6229,-7.6232,-7.6233,-7.6376,-7.6359,-7.6573,-7.6375,-7.632,-7.6358,-7.635,-7.6506,-7.6524,-7.6578,-7.6826,-7.6835,-7.6631,-7.664,-7.6646,-7.6651,0,0,0,0,0,0,0,-7.5954,-7.5987,-7.6321,-7.6233,-7.6235,-7.6215,-7.6236,-7.6399,-7.645,-7.6324,-7.6319,-7.6344,-7.6506,-7.6564,-7.6582,-7.6838,-7.6631,-7.6644,-7.6653,-7.6659,-7.7285,-7.7293,0,0,0,0,0,0,-7.594,-7.5976,-7.6314,-7.6327,-7.6081,-7.6229,-7.6252,-7.6337,-7.6448,-7.6458,-7.635,-7.634,-7.6542,-7.6565,-7.6589,-7.6868,-7.6646,-7.666,-7.6669,-7.7278,-7.7287,-7.7296,0,0,0,0,0,0,-7.593,-7.5971,-7.6306,-7.615,-7.6191,-7.6244,-7.634,-7.6345,-7.6403,-7.6468,-7.6476,-7.6401,-7.6538,-7.6569,-7.6761,-7.6874,-7.6667,-7.668,-7.7268,-7.7281,-7.7291,-7.7427,0,0,0,0,0,0,-7.5917,-7.5968,-7.6058,-7.6153,-7.62,-7.6476,-7.6347,-7.6354,-7.6429,-7.6418,-7.6517,-7.6527,-7.6535,-7.6739,-7.6776,-7.689,-7.6692,-7.7259,-7.7274,-7.7288,-7.7413,-7.7442,-7.7467,0,0,0,0,0,-7.5901,-7.6087,-7.6063,-7.6104,-7.6314,-7.6483,-7.651,-7.6516,-7.6439,-7.6529,-7.657,-7.6524,-7.6856,-7.676,-7.68,-7.6921,-7.7251,-7.727,-7.7287,-7.7401,-7.7436,-7.7466,0,0,0,0,0,0,-7.6003,-7.6099,-7.6074,-7.6296,-7.6382,-7.647,-7.6583,-7.6554,-7.6662,-7.6647,-7.6648,-7.6671,-7.687,-7.6914,-7.6805,-7.715,-7.7042,-7.7068,-7.7115,-7.7149,-7.7176,-7.7161,-7.6704,0,0,0,0,0,-7.6051,-7.6182,-7.6259,-7.6447,-7.6492,-7.6531,-7.6604,-7.6602,-7.669,-7.6726,-7.6781,-7.6867,-7.6991,-7.7072,-7.7189,-7.7418,-7.7438,-7.7521,-7.7548,-7.757,-7.7593,-7.7717,-7.7755,-7.7353,-7.7353,-7.7353,0,0,-7.6152,-7.6221,-7.6303,-7.647,-7.6536,-7.667,-7.6562,-7.6708,-7.6807,-7.6747,-7.6933,-7.6977,-7.7073,-7.7285,-7.738,-7.7328,-7.7709,-7.7593,-7.761,-7.7621,-7.7739,-7.7777,-7.7811,-7.7365,-7.7363,-7.7361,0,0,-7.6405,-7.6471,-7.6635,-7.6704,-7.6806,-7.6831,-7.687,-7.6963,-7.699,-7.7176,-7.7134,-7.7251,-7.7464,-7.7534,-7.7597,-7.7876,-7.7838,-7.7914,-7.8056,-7.8177,-7.8209,-7.8237,-7.8336,-7.8372,-7.7937,-7.7937,-7.7937,0,-7.6518,-7.672,-7.6723,-7.6874,-7.6948,-7.6901,-7.7067,-7.7133,-7.7267,-7.7319,-7.7258,-7.7524,-7.7585,-7.7813,-7.7881,-7.7934,-7.7978,-7.7903,-7.8204,-7.8232,-7.8259,-7.8353,-7.8391,-7.7946,-7.7945,-7.7944,-7.7943,0,-7.6853,-7.6993,-7.7113,-7.7247,-7.7334,-7.7491,-7.7517,-7.7605,-7.7594,-7.7624,-7.7814,-7.7886,-7.8017,-7.807,-7.8061,-7.8297,-7.8261,-7.8202,-7.8093,-7.8305,-7.8395,-7.8431,-7.7958,-7.7955,-7.7952,-7.795,0,0,-7.7176,-7.7309,-7.7353,-7.7413,-7.7522,-7.763,-7.7784,-7.7914,-7.7989,-7.8082,-7.8211,-7.8392,-7.8339,-7.8411,-7.8409,-7.8515,-7.8731,-7.8443,-7.8445,-7.8495,-7.8995,-7.9039,-7.9081,-7.8706,-7.8713,-7.8718,-7.8987,0,-7.7438,-7.7711,-7.7719,-7.7968,-7.8097,-7.8054,-7.8189,-7.8269,-7.8301,-7.8414,-7.8448,-7.8577,-7.8497,-7.854,-7.8643,-7.8683,-7.8832,-7.8664,-7.8825,-7.8831,-7.8804,-7.9128,-7.9175,-7.9425,-7.9022,-7.9028,-7.9032,0,-7.7781,-7.7887,-7.815,-7.824,-7.8294,-7.8416,-7.8534,-7.8643,-7.8733,-7.8749,-7.883,-7.8812,-7.8967,-7.8853,-7.9067,-7.8953,-7.9018,-7.9048,-7.9058,-7.9074,-7.8945,-7.9153,-7.9505,-7.9543,-7.9087,-7.9083,-7.9079,0,-7.7991,-7.82,-7.8384,-7.8436,-7.8546,-7.8632,-7.8681,-7.8764,-7.8841,-7.8944,-7.8994,-7.9113,-7.9179,-7.9271,-7.9285,-7.92,-7.95,-7.9386,-7.9517,-7.9517,-7.9583,-7.9579,-7.9951,-7.9625,-7.9624,-7.9623,-7.9622,0,-7.8283,-7.8446,-7.848,-7.8593,-7.8774,-7.8779,-7.8957,-7.8999,-7.9073,-7.9193,-7.9162,-7.9274,-7.9286,-7.9402,-7.9413,-7.9589,-7.9618,-7.9634,-7.9636,-7.9638,-7.9636,-7.9682,-7.9665,-7.9633,-7.9631,-7.9629,-7.9627,0,-7.8549,-7.8579,-7.8777,-7.8864,-7.889,-7.9019,-7.9093,-7.9201,-7.9229,-7.9381,-7.9416,-7.9461,-7.9595,-7.9618,-7.9776,-7.9783,-7.9994,-7.9977,-7.9965,-7.9963,-8.0092,-8.008,-8.0508,-8.0564,-8.02,-8.0203,-8.0206,0,-7.8734,-7.8858,-7.8959,-7.9038,-7.9092,-7.9219,-7.9298,-7.9308,-7.9391,-7.9502,-7.9596,-7.9728,-7.9834,-8.005,-8.0095,-8.0216,-8.0202,-8.0343,-8.0219,-8.0218,-8.0204,-8.0197,-8.021,-8.0367,-8.0371,-8.0374,-8.0377,0,-7.9059,-7.9068,-7.9184,-7.9305,-7.94,-7.9496,-7.9586,-7.9652,-7.9673,-7.9768,-7.9906,-7.9988,-8.015,-8.028,-8.04,-8.0448,-8.0417,-8.0416,-8.0452,-8.0456,-8.0444,-8.0453,-8.003,-8.0406,-8.0403,-8.0401,-8.0399,-8.0398,-7.9291,-7.9399,-7.9488,-7.9617,-7.9687,-7.9772,-7.9877,-7.9919,-8.0035,-8.0169,-8.0166,-8.0318,-8.0403,-8.056,-8.0617,-8.0734,-8.0688,-8.0741,-8.0755,-8.0768,-8.0781,-8.0425,-8.0755,-8.0755,-8.0754,-8.0753,-8.0753,0,-7.9615,-7.967,-7.9789,-7.9917,-8.0019,-7.9981,-8.0079,-8.0166,-8.03,-8.0383,-8.0488,-8.0646,-8.0773,-8.0828,-8.0952,-8.1035,-8.1023,-8.1067,-8.1061,-8.1073,-8.0814,-8.0771,-8.1074,-8.1074,-8.1074,-8.1074,-8.1074,-8.1074,-7.9796,-7.9978,-7.9996,-8.0211,-8.0264,-8.0413,-8.0472,-8.055,-8.0616,-8.0795,-8.09,-8.0936,-8.1007,-8.1136,-8.125,-8.1262,-8.1309,-8.136,-8.1367,-8.1124,-8.1091,-8.106,-8.1019,-8.137,-8.1371,-8.1616,-8.1618,-8.162]}]]